Weather History for 71786 - October, 2012

Change the Weather History Date:

Monday, October 1, 2012

  Actual Average Record
Temperature  
Mean Temperature 49 °F -  
Max Temperature 58 °F - - ()
Min Temperature 40 °F - - ()
Degree Days  
Heating Degree Days 16    
Moisture  
Dew Point 38 °F    
Average Humidity 70    
Maximum Humidity 96    
Minimum Humidity 45    
Precipitation  
Precipitation 0.00 in - - ()
Sea Level Pressure  
Sea Level Pressure 30.10 in    
Wind  
Wind Speed 13 mph ()    
Max Wind Speed 22 mph    
Max Gust Speed -    
T = Trace of Precipitation, MM = Missing Value Source: Averaged Metar Reports

Daily Weather History Graph

Daily Weather History Graph

Search for Another Location

Airport or City:

Trip Planner

Search our weather history database for the weather conditions in past years. The results will help you decide how hot, cold, wet, or windy it might be!

Date:

Astronomy

Oct. 01, 2012 Rise Set
Actual Time 7:47 AM MDT 7:21 PM MDT
Civil Twilight 7:13 AM MDT 7:54 PM MDT
Nautical Twilight 6:35 AM MDT 8:33 PM MDT
Astronomical Twilight 5:55 AM MDT 9:12 PM MDT
Moon 7:41 PM MDT (10/1) 9:38 AM MDT (10/1)
Length of Visible Light 12h 40m
Length of Day
11h 34m
Full, 97% of the Moon is Illuminated
Oct 1
Full
Oct 8
Last Quarter
Oct 15
New
Oct 21
First Quarter
Oct 29
Full

Hourly Weather History & Observations

Time (MDT) Temp. Windchill Dew Point Humidity Pressure Visibility Wind Dir Wind Speed Gust Speed Precip Events Conditions
12:00 AM 42 °F - 35 °F 69% 30.33 in - West 11.5 mph - -  
12:00 AM 42.4 °F 36.1 °F 35.2 °F 76% 30.33 in - West 11.5 mph - N/A   Unknown
1:00 AM 40.6 °F 33.8 °F 34.5 °F 79% 30.31 in - WSW 11.5 mph - N/A   Unknown
2:00 AM 40.8 °F 34.1 °F 34.5 °F 78% 30.29 in - West 11.5 mph - N/A   Unknown
3:00 AM 41.0 °F 33.5 °F 33.8 °F 76% 30.29 in - WSW 13.8 mph - N/A   Unknown
4:00 AM 40.5 °F 32.5 °F 33.8 °F 77% 30.27 in - WSW 15.0 mph - N/A   Unknown
5:00 AM 41.5 °F 34.2 °F 34.2 °F 75% 30.27 in - West 13.8 mph - N/A   Unknown
6:00 AM 41 °F - 34 °F 69% 30.28 in - West 12.7 mph - -  
6:00 AM 40.8 °F 33.7 °F 34.3 °F 78% 30.28 in - West 12.7 mph - N/A   Unknown
7:00 AM 41.4 °F 34.3 °F 34.0 °F 75% 30.28 in - WSW 12.7 mph - N/A   Unknown
8:00 AM 42.4 °F 35.3 °F 33.8 °F 71% 30.26 in - West 13.8 mph - N/A   Unknown
9:00 AM 42.6 °F 34.6 °F 34.3 °F 73% 30.24 in - West 17.3 mph - N/A   Unknown
10:00 AM 43.5 °F 35.5 °F 34.2 °F 70% 30.22 in - West 18.4 mph - N/A   Unknown
11:00 AM 44.2 °F 37.0 °F 35.4 °F 71% 30.18 in - West 16.1 mph - N/A   Unknown
12:00 PM 48 °F - 37 °F 56% 30.13 in - West 19.6 mph - -  
12:00 PM 47.7 °F - 37.0 °F 67% 30.13 in - West 19.6 mph - N/A   Unknown
1:00 PM 51.8 °F - 39.9 °F 64% 30.08 in - WSW 17.3 mph - N/A   Unknown
2:00 PM 56.3 °F - 41.4 °F 57% 30.02 in - WSW 19.6 mph - N/A   Unknown
3:00 PM 58.8 °F - 40.6 °F 51% 29.98 in - WSW 19.6 mph - N/A   Unknown
4:00 PM 57.2 °F - 40.6 °F 54% 29.95 in - WSW 21.9 mph - N/A   Unknown
5:00 PM 55.4 °F - 40.3 °F 57% 29.92 in - WSW 15.0 mph - N/A   Unknown
6:00 PM 55 °F - 40 °F 45% 29.86 in - WSW 19.6 mph - -  
6:00 PM 55.4 °F - 39.6 °F 55% 29.86 in - WSW 19.6 mph - N/A   Unknown
7:00 PM 54.9 °F - 41.0 °F 60% 29.78 in - WSW 15.0 mph - N/A   Unknown
8:00 PM 53.8 °F - 42.8 °F 66% 29.76 in - WSW 15.0 mph - N/A   Unknown
9:00 PM 48.2 °F - 46.2 °F 93% 29.81 in - WSW 12.7 mph - N/A   Unknown
10:00 PM 44.1 °F 38.6 °F 42.8 °F 95% 29.87 in - WSW 10.4 mph - N/A   Unknown
11:00 PM 42.3 °F 37.9 °F 41.2 °F 96% 29.90 in - WSW 6.9 mph - N/A   Unknown